Ft Lauderdale, FL

12:34 AM EDT on August 22, 2017 (GMT -0400)
Fort Lauderdale-Hollywood International

Weather History for KFLL - August, 2014

Change the Weather History Date:

Wednesday, August 27, 2014

  Actual Average Record
Temperature  
Mean Temperature 85 °F 84 °F  
Max Temperature 91 °F 90 °F 97 °F (1954)
Min Temperature 78 °F 78 °F 69 °F (1922)
Degree Days  
Heating Degree Days 0 0  
Month to date heating degree days 0 0  
Since 1 June heating degree days 0 0  
Since 1 July heating degree days 0 0  
Cooling Degree Days 20 19  
Month to date cooling degree days 557 532  
Year to date cooling degree days 3223 3091  
Since 1 June cooling degree days 1688 1673  
Growing Degree Days 34 (Base 50)    
Moisture  
Dew Point 71 °F    
Average Humidity 66    
Maximum Humidity 79    
Minimum Humidity 52    
Precipitation  
Precipitation 0.00 in 0.27 in 4.75 in (1964)
Month to date precipitation 5.30 6.35  
Year to date precipitation 43.72 39.98  
Snow  
Snow 0.00 in - - ()
Month to date snowfall 0.0  
Since 1 June snowfall 0.0  
Since 1 July snowfall 0.0  
Snow Depth 0.00 in    
Sea Level Pressure  
Sea Level Pressure 29.93 in    
Wind  
Wind Speed 9 mph (ENE)    
Max Wind Speed 17 mph    
Max Gust Speed 23 mph    
Visibility 10 miles    
Events      
T = Trace of Precipitation, MM = Missing Value Source: NWS Daily Summary

Daily Weather History Graph

Daily Weather History Graph

Search for Another Location

Airport or City:

Trip Planner

Search our weather history database for the weather conditions in past years. The results will help you decide how hot, cold, wet, or windy it might be!

Date:

Astronomy

Aug. 27, 2014 Rise Set
Actual Time 6:58 AM EDT 7:45 PM EDT
Civil Twilight 6:34 AM EDT 8:08 PM EDT
Nautical Twilight 6:07 AM EDT 8:36 PM EDT
Astronomical Twilight 5:38 AM EDT 9:04 PM EDT
Moon 8:38 AM EDT (8/27) 8:54 PM EDT (8/27)
Length of Visible Light 13h 33m
Length of Day
12h 46m
Waxing Crescent, 4% of the Moon is Illuminated
Aug 27
Waxing Crescent
Sep 2
First Quarter
Sep 8
Full
Sep 15
Last Quarter
Sep 24
New

Hourly Weather History & Observations

Time (EDT) Temp. Heat Index Dew Point Humidity Pressure Visibility Wind Dir Wind Speed Gust Speed Precip Events Conditions
12:53 AM 82.9 °F 86.5 °F 69.1 °F 63% 29.89 in 10.0 mi NE 6.9 mph - N/A   Scattered Clouds
1:53 AM 82.9 °F 86.5 °F 69.1 °F 63% 29.89 in 10.0 mi NNE 6.9 mph - N/A   Partly Cloudy
2:53 AM 82.0 °F 85.5 °F 69.1 °F 65% 29.88 in 10.0 mi Variable 4.6 mph - N/A   Scattered Clouds
3:53 AM 80.1 °F 82.9 °F 69.1 °F 69% 29.88 in 10.0 mi North 4.6 mph - N/A   Partly Cloudy
4:53 AM 80.1 °F 83.2 °F 70.0 °F 71% 29.88 in 10.0 mi NW 4.6 mph - N/A   Partly Cloudy
5:53 AM 78.1 °F - 70.0 °F 76% 29.88 in 10.0 mi NNW 4.6 mph - N/A   Scattered Clouds
6:53 AM 79.0 °F - 71.1 °F 77% 29.91 in 10.0 mi North 3.5 mph - N/A   Mostly Cloudy
7:53 AM 80.1 °F 83.8 °F 72.0 °F 76% 29.92 in 10.0 mi North 4.6 mph - N/A   Mostly Cloudy
8:53 AM 82.0 °F 86.7 °F 72.0 °F 71% 29.94 in 10.0 mi Calm Calm - N/A   Mostly Cloudy
9:53 AM 87.1 °F 92.8 °F 71.1 °F 59% 29.95 in 10.0 mi ENE 9.2 mph - N/A   Partly Cloudy
10:53 AM 89.1 °F 96.0 °F 72.0 °F 57% 29.95 in 10.0 mi ENE 12.7 mph - N/A   Partly Cloudy
11:53 AM 89.1 °F 95.0 °F 71.1 °F 55% 29.95 in 10.0 mi ENE 11.5 mph - N/A   Partly Cloudy
12:53 PM 89.1 °F 95.0 °F 71.1 °F 55% 29.95 in 10.0 mi ENE 12.7 mph - N/A   Partly Cloudy
1:53 PM 90.0 °F 95.4 °F 70.0 °F 52% 29.94 in 10.0 mi NE 12.7 mph 19.6 mph N/A   Partly Cloudy
2:53 PM 90.0 °F 97.9 °F 73.0 °F 57% 29.93 in 10.0 mi East 12.7 mph - N/A   Partly Cloudy
3:53 PM 89.1 °F 96.0 °F 72.0 °F 57% 29.92 in 10.0 mi East 11.5 mph 21.9 mph N/A   Partly Cloudy
4:53 PM 89.1 °F 96.0 °F 72.0 °F 57% 29.91 in 10.0 mi East 12.7 mph - N/A   Partly Cloudy
5:53 PM 88.0 °F 94.7 °F 72.0 °F 59% 29.92 in 10.0 mi East 13.8 mph - N/A   Partly Cloudy
6:53 PM 87.1 °F 93.6 °F 72.0 °F 61% 29.94 in 10.0 mi East 12.7 mph - N/A   Scattered Clouds
7:53 PM 86.0 °F 92.2 °F 72.0 °F 63% 29.95 in 10.0 mi East 12.7 mph - N/A   Scattered Clouds
8:53 PM 84.9 °F 90.1 °F 71.1 °F 63% 29.96 in 10.0 mi ESE 10.4 mph - N/A   Partly Cloudy
9:53 PM 84.0 °F 89.6 °F 72.0 °F 67% 29.97 in 10.0 mi ENE 8.1 mph - N/A   Scattered Clouds
10:53 PM 84.9 °F 90.7 °F 72.0 °F 65% 29.98 in 10.0 mi ENE 8.1 mph - N/A   Mostly Cloudy
11:53 PM 84.0 °F 90.2 °F 73.0 °F 69% 29.99 in 10.0 mi East 10.4 mph - N/A   Mostly Cloudy